CAPE
0 0 0 0 0 0 0 0 0 2 0 0 0 2 0 0 0 11 3 0 16 6 31 24 10 0 24 38 43 41 39 32 38 28 15 18 20 24
0 0 0 0 0 0 0 0 0 0 9 0 0 0 0 1 1 10 7 2 0 0 0 0 0 0 0 19 20 14 27 24 35 35 9 11 14 12
0 0 0 0 0 0 0 0 0 0 1 0 1 1 2 1 2 3 7 10 7 0 0 0 0 0 0 3 3 4 20 24 31 27 27 17 8 13
0 0 0 0 0 0 0 0 0 0 1 0 0 3 2 4 3 7 13 11 1 0 0 0 0 0 0 0 0 0 8 10 16 14 26 28 19 11
0 0 0 0 0 0 0 0 0 0 0 0 0 6 3 2 1 2 10 13 3 0 0 0 0 0 0 0 0 0 0 4 8 5 13 15 15 15
0 0 0 0 0 0 0 0 0 0 0 0 0 4 2 7 13 13 7 10 3 0 0 0 0 0 0 0 0 0 0 0 0 1 1 1 0 9
0 0 0 0 0 0 0 0 0 0 0 0 1 4 2 3 10 8 10 12 1 0 7 1 0 0 0 0 0 0 0 0 0 1 1 0 0 2
0 0 0 0 0 4 10 15 7 0 0 3 1 2 0 5 14 12 10 10 1 0 9 1 0 0 0 0 0 0 0 0 0 1 0 0 0 0
0 0 0 0 0 0 1 10 14 16 14 8 1 1 3 4 12 13 12 13 9 4 7 5 2 1 0 0 0 0 0 0 0 0 0 0 0 0
0 0 0 0 0 0 1 3 4 5 5 2 7 19 9 9 8 5 4 5 4 9 7 5 2 1 0 0 0 0 0 0 0 0 0 0 0 0
0 0 1 0 4 17 9 13 3 0 3 14 12 11 21 34 35 10 4 8 3 2 6 5 16 0 0 0 0 0 0 0 0 0 0 0 0 0
0 0 4 3 16 20 3 2 4 4 0 0 0 2 6 13 43 26 4 1 7 1 1 3 15 0 1 0 0 0 0 0 0 0 0 0 0 0
1 0 0 8 19 20 19 11 3 2 9 7 0 0 0 0 1 2 6 4 7 1 5 6 1 0 0 0 0 0 0 0 0 0 0 0 0 0
3 0 0 7 19 21 17 35 45 45 28 0 0 1 1 0 1 0 5 2 3 1 1 9 1 2 0 0 0 0 0 0 0 0 0 0 0 0
40 6 30 30 31 30 42 43 30 17 10 30 0 0 0 0 0 9 20 1 1 1 3 4 10 5 5 0 0 0 0 0 0 0 0 0 0 0
0 0 5 27 48 35 39 41 18 5 20 10 2 0 0 0 5 7 4 0 0 0 2 6 5 3 3 0 0 0 0 0 0 0 0 0 0 0
1 0 0 0 0 0 0 0 16 0 0 10 0 16 0 0 2 7 1 0 0 2 0 1 1 2 0 0 0 0 0 0 0 0 0 0 0 0
12 13 0 0 0 0 0 0 0 3 0 0 0 9 0 0 1 4 1 1 4 0 0 0 1 1 0 0 0 0 0 0 0 0 0 0 0 0
8 10 0 1 2 0 0 0 0 0 0 0 0 0 5 0 2 2 1 1 0 0 0 0 4 1 1 0 1 0 0 0 0 0 0 0 0 0
0 1 11 12 8 5 0 0 0 0 0 0 0 0 22 0 0 1 1 0 0 0 1 0 0 1 0 0 1 1 0 0 0 0 0 0 0 0
0 2 5 9 2 2 2 0 0 0 0 2 0 0 1 0 0 0 0 3 2 1 1 1 0 0 1 1 1 1 1 0 0 0 0 0 0 0
8 15 7 0 2 10 10 0 0 0 0 12 0 0 0 18 1 0 0 0 3 0 0 0 0 4 1 0 1 0 1 0 0 0 0 0 0 0
9 10 8 4 12 0 2 19 0 0 0 0 3 0 0 10 12 0 0 0 0 0 0 0 0 0 0 0 0 1 1 0 0 0 0 1 0 0
CIN
0 0 0 0 0 0 0 0 -0 -0 0 0 0 -1 0 0 0 0 0 0 -46 -23 -8 -4 -4 0 -8 -4 -3 -1 -0 -1 -3 -2 -0 -1 -0 -0
0 0 0 0 0 0 0 0 0 -4 -0 -0 0 0 -0 0 0 0 0 0 0 0 -4 -11 0 0 0 -12 -8 -17 -10 -6 -3 -0 0 -0 -0 -0
0 0 0 0 0 0 0 0 0 -2 -3 0 -4 -4 -2 -1 0 0 0 0 0 -13 -3 0 0 0 0 -37 -33 -33 -19 -10 -3 -0 -0 -0 -0 -0
0 0 0 0 0 0 0 0 0 0 -5 -0 -0 -2 -2 -0 -0 0 0 0 0 0 0 0 0 0 0 0 0 -34 -29 -18 -10 -2 -2 -1 -0 0
0 0 0 0 0 0 0 0 0 0 0 0 0 -4 -4 -2 -0 0 0 0 0 0 0 0 0 0 0 0 0 0 -28 -26 -13 -4 -12 -7 -1 0
0 0 0 0 0 0 0 0 0 0 0 0 0 -2 -4 -1 -0 0 -0 -0 0 0 0 0 0 0 0 0 0 0 0 -18 -5 -11 -14 -12 -5 -1
0 0 0 0 0 0 0 0 0 0 0 -3 -2 -2 -3 -0 0 0 0 0 -0 0 0 -45 0 0 0 0 0 0 0 0 -9 -15 -20 0 0 -5
0 0 0 0 0 0 0 0 -1 0 -0 -2 -1 -1 0 -1 0 0 0 0 0 0 0 -16 -28 0 0 0 0 0 0 0 0 -30 0 0 0 0
0 0 0 0 0 0 0 -0 -1 0 0 -0 -0 -1 -2 -2 0 0 0 0 0 -0 0 0 -6 -1 -0 0 0 0 0 0 0 0 0 0 0 0
0 0 0 0 0 -1 -2 -3 -3 -3 -2 -1 -1 -0 -1 -2 -1 -0 0 0 0 0 0 0 -0 -14 -0 0 0 0 0 0 0 0 0 0 0 0
0 0 -1 -2 0 0 -1 -0 -2 -2 -4 0 -0 -0 0 0 0 0 0 0 0 0 -0 0 -0 0 -1 0 0 0 0 0 0 0 0 0 0 0
0 0 0 -3 0 0 -1 -2 -0 -0 0 0 0 -6 -1 -0 0 -0 0 0 0 0 0 0 0 0 -1 0 0 0 0 0 0 0 0 0 0 0
-0 -0 0 0 0 0 -0 -1 -4 -1 -2 -3 0 0 0 0 -2 -0 0 0 0 0 0 0 0 0 0 0 0 0 0 0 0 0 0 0 0 0
-0 0 0 0 0 0 -0 0 0 -0 -0 0 0 -1 -3 0 -1 -0 -0 0 0 0 0 0 0 0 0 0 0 0 0 0 0 0 0 0 0 0
-1 -4 0 0 0 -0 0 0 -0 -0 -2 0 0 0 0 0 0 -0 0 0 0 0 0 0 0 0 0 0 0 0 0 0 0 0 0 0 0 0
0 0 -1 -0 0 -1 -0 -0 -1 -4 -1 -1 -1 -1 0 0 -0 -0 0 0 0 0 0 0 0 0 0 0 0 0 0 0 0 0 0 0 0 0
-0 0 0 0 0 0 0 0 -1 0 0 -1 0 -0 0 0 -0 -0 -0 0 0 0 0 0 0 0 0 0 0 0 0 0 0 0 0 0 0 0
-2 -1 -3 -0 -1 0 0 0 0 -1 0 0 0 -0 0 0 -0 -0 0 0 0 0 0 -0 0 0 0 0 0 0 0 0 0 0 0 0 0 0
-1 -1 0 -1 -1 0 0 0 0 0 0 0 0 0 -2 0 -1 -0 -0 0 0 0 0 0 -1 0 0 0 0 0 0 0 0 0 0 0 0 0
-2 -0 -0 -1 -1 -1 0 0 0 0 -1 0 0 0 -0 -0 -0 -0 -0 -0 0 0 0 0 0 0 0 0 0 0 0 0 0 0 0 0 0 0
-0 -0 0 -1 0 -1 -3 0 0 0 0 -3 0 0 -0 -0 -0 -0 -0 -0 -0 -0 -0 0 0 0 0 0 0 0 0 0 0 0 0 0 0 0
0 0 -0 -0 -1 -1 -0 0 -0 0 0 -2 0 0 0 -0 -0 0 -0 -0 -0 0 -0 0 -0 -0 0 0 0 0 0 0 0 0 0 0 0 0
0 0 0 0 0 0 -1 -0 -0 0 0 0 -4 0 0 -1 -0 0 0 0 0 0 0 0 0 -0 0 0 0 0 0 0 0 0 0 0 0 0
Wind_Speed
5 5 4 4 4 4 5 4 3 8 10 3 5 8 13 12 18 16 16 20 33 31 33 32 31 32 30 29 29 27 25 24 23 22 21 20 19 17
5 6 5 4 5 4 4 5 4 6 11 3 7 14 14 13 16 16 15 22 29 35 32 32 31 30 32 28 29 27 26 25 24 23 24 22 20 19
6 6 8 6 5 4 4 4 5 5 11 11 10 11 13 14 14 15 13 15 12 38 35 32 33 31 32 29 30 28 26 26 25 25 23 22 21 19
6 7 8 7 7 6 5 7 7 6 7 15 11 11 12 11 13 17 13 11 13 35 37 35 35 34 34 31 31 29 27 25 26 25 22 21 21 20
8 8 9 7 8 6 6 7 7 7 8 8 11 10 10 9 11 12 13 10 8 12 36 36 36 34 34 36 32 30 26 26 24 22 21 20 21 20
9 9 9 9 9 7 7 8 8 8 7 7 10 10 9 7 7 10 10 5 7 8 15 29 32 35 34 36 34 31 28 27 23 23 19 20 20 20
10 10 10 11 18 16 9 8 7 8 8 8 9 8 8 8 6 6 11 10 8 6 11 18 19 19 21 33 30 32 33 27 24 21 22 22 20 18
10 9 10 17 18 23 23 24 18 11 11 9 8 9 10 8 6 6 8 10 6 4 9 14 19 20 19 18 32 35 35 30 26 23 23 24 21 17
11 11 10 10 16 11 17 22 22 24 24 14 13 11 8 8 6 6 6 8 8 7 7 10 17 18 18 19 34 36 36 35 28 23 24 23 22 18
11 11 11 12 10 10 10 13 14 13 13 11 12 11 11 9 9 7 8 10 11 9 4 9 14 18 18 17 36 35 37 36 33 26 26 25 23 19
11 12 13 13 17 22 15 14 12 13 15 23 24 25 25 23 15 6 5 6 8 5 1 5 12 16 16 17 19 35 34 37 36 31 28 26 25 21
10 13 22 19 23 24 15 11 11 11 11 11 10 14 17 16 19 8 6 7 5 6 3 6 13 13 12 14 17 18 18 34 38 36 32 28 27 13
9 9 9 21 24 24 23 11 12 11 13 12 10 8 8 9 7 7 6 5 5 5 6 6 7 7 6 13 16 18 18 17 15 23 33 32 30 21
11 9 11 22 24 24 19 20 23 20 9 9 9 8 8 8 8 8 10 8 5 7 8 9 6 10 3 14 14 16 17 16 15 16 16 23 29 26
8 12 22 23 25 21 24 24 22 10 8 8 10 9 8 8 8 8 8 8 8 7 9 12 10 13 12 17 17 18 20 16 15 16 15 16 17 15
15 13 15 18 19 16 14 15 10 8 8 8 9 7 7 7 8 7 7 5 6 6 9 14 12 12 12 17 18 18 18 14 17 15 15 14 14 13
16 9 8 8 8 8 7 8 7 8 9 8 8 8 9 8 8 6 6 5 6 3 4 6 9 11 9 14 20 21 19 14 16 15 15 13 14 15
10 7 8 9 10 9 8 8 7 11 9 8 7 8 8 9 8 7 6 7 8 6 6 4 3 4 3 5 7 19 17 17 16 18 15 14 12 14
8 7 6 8 8 10 9 8 8 8 10 9 9 8 7 8 11 7 6 5 2 2 3 3 3 1 2 12 3 4 20 15 18 15 16 16 15 15
6 7 7 7 8 8 9 9 8 7 7 8 8 8 7 7 7 7 6 7 5 2 3 2 2 1 3 4 4 2 10 18 18 17 15 12 6 10
6 6 6 6 7 8 8 8 9 8 7 8 8 8 8 7 7 7 7 12 10 6 7 6 6 4 1 2 3 3 2 13 22 23 18 16 12 9
6 6 6 6 6 6 5 7 6 8 7 7 8 8 7 8 9 8 8 7 7 5 3 1 2 3 1 2 1 6 3 6 6 9 22 13 16 15
6 6 5 5 5 6 5 6 7 7 7 6 6 7 7 7 6 9 8 7 6 5 5 5 2 0 1 1 3 2 4 10 8 10 9 4 10 11
Wind_Direction
255 251 235 234 243 251 262 255 258 299 305 315 321 336 342 334 326 329 325 237 187 184 184 179 177 172 170 172 169 166 167 164 162 164 165 157 153 150
258 253 247 228 237 243 251 254 224 246 273 308 290 305 314 321 320 318 314 301 235 179 181 177 173 173 163 169 164 163 166 164 162 166 169 165 156 155
256 255 263 258 256 245 250 256 247 231 263 278 286 296 303 308 317 316 311 298 255 178 179 174 170 170 163 163 162 161 164 164 165 170 170 168 163 151
250 251 251 259 251 245 240 253 257 249 258 278 285 294 296 309 311 304 310 312 314 185 179 172 169 166 163 159 162 159 163 165 165 172 171 164 160 159
246 247 253 247 256 249 247 254 259 258 255 266 281 286 292 304 309 301 289 293 323 237 170 170 168 163 166 159 162 159 162 161 166 171 169 164 158 164
251 247 250 248 251 251 250 253 261 260 256 257 271 280 284 294 302 298 298 312 330 312 223 171 165 164 167 163 160 161 156 163 172 175 163 156 159 167
251 249 248 245 252 251 252 250 254 262 260 260 266 272 279 292 289 311 310 318 302 280 293 169 169 166 169 167 160 162 155 164 167 170 160 158 160 169
250 252 248 254 258 259 257 254 248 248 256 263 265 263 271 278 300 310 310 314 314 31 238 168 175 171 170 171 169 162 160 163 167 168 162 162 162 169
243 252 257 255 257 240 254 262 264 262 256 256 256 255 262 273 279 293 296 305 293 321 342 277 180 171 170 168 171 165 164 159 167 167 162 165 164 168
245 247 250 255 250 253 248 250 251 254 259 266 264 263 257 257 254 259 271 278 279 277 268 286 188 171 167 167 171 171 164 162 162 169 165 167 165 168
246 247 247 252 253 255 256 252 248 249 250 253 259 259 259 257 242 236 238 260 284 282 284 296 242 161 165 164 170 171 170 166 163 170 170 170 164 165
245 243 252 256 252 253 251 248 251 247 236 244 251 260 268 258 252 252 233 233 259 300 116 355 232 150 163 162 167 172 170 173 169 172 170 171 164 164
246 247 242 252 260 261 256 236 236 242 242 238 241 243 239 240 228 235 221 213 230 239 330 350 321 181 118 150 163 173 173 172 174 173 171 171 170 169
242 247 248 253 258 259 259 253 252 250 243 225 233 229 230 230 225 230 229 214 223 248 283 299 279 307 147 158 165 168 172 170 172 174 177 174 173 175
260 245 248 250 254 256 254 249 250 246 241 249 225 218 216 218 221 225 223 211 221 225 256 259 259 275 278 167 161 164 165 171 173 173 175 174 177 175
272 269 264 258 249 245 243 250 246 236 230 235 243 229 210 199 210 214 222 207 226 240 234 247 252 262 283 170 157 163 166 169 173 171 171 172 175 182
257 249 247 252 251 243 243 230 227 232 236 232 230 231 213 202 211 198 203 191 222 223 236 226 240 252 257 187 163 164 164 167 172 167 166 168 183 181
274 259 232 231 235 232 232 234 228 231 222 222 217 232 210 204 205 200 208 216 226 211 225 228 229 259 327 77 176 160 168 163 168 167 167 170 178 185
270 263 238 238 229 227 228 225 230 223 220 216 218 216 212 207 206 202 202 216 205 156 215 237 223 222 54 156 323 221 161 162 161 167 173 181 180 186
263 266 263 246 239 225 222 221 226 221 213 213 213 206 202 206 199 196 198 201 210 185 232 271 263 207 116 160 155 206 182 160 166 169 175 178 161 137
259 259 265 265 245 231 219 222 220 219 214 211 205 195 198 188 206 193 192 188 200 200 219 223 236 310 131 83 60 135 98 185 176 170 171 168 165 160
290 289 270 252 265 251 240 212 213 222 224 217 202 192 196 201 193 196 183 188 196 187 175 150 140 203 61 111 141 148 104 141 71 170 179 153 167 177
290 285 277 274 281 250 257 243 213 206 214 211 194 192 191 198 187 185 184 193 171 164 170 173 160 271 152 126 154 116 112 160 158 160 178 94 98 102